Location: Esterri de Aneo
(42.6284°N, 1.1223°E)
Time: 02:10:17
(UTC+00:00)

Cosmos 1386 Rocket - Pass Details

Date: 11 December 2025
Orbit: 929 x 1004 km, 83.0° (Epoch: 24 January)

Event Time Altitude Azimuth Distance (km) Brightness Sun altitude
Rises 18:45:00 0° 354° (N) 3,612 7.5 -25.4°
Reaches altitude 10° 18:47:30 10° 356° (N) 2,672 6.7 -25.9°
Maximum altitude 18:53:36 73° 81° (E) 1,002 4.3 -27.0°
Drops below altitude 10° 18:59:46 10° 166° (SSE) 2,703 6.7 -28.1°
Sets 19:02:18 0° 168° (SSE) 3,658 7.5 -28.6°
